Weather History for KEBG - March, 2013

Change the Weather History Date:

Saturday, March 16, 2013

  Actual Average (KMFE) Record (KMFE)
Temperature  
Mean Temperature 71 °F 71 °F  
Max Temperature 84 °F 82 °F 97 °F (1961)
Min Temperature 58 °F 60 °F 38 °F (1899)
Degree Days  
Heating Degree Days 0 1  
Month to date heating degree days 27  
Since 1 July heating degree days 560  
Cooling Degree Days 6 7  
Month to date cooling degree days 95  
Year to date cooling degree days 254  
Growing Degree Days 21 (Base 50)    
Moisture  
Dew Point 59 °F    
Average Humidity 66    
Maximum Humidity 91    
Minimum Humidity 41    
Precipitation  
Precipitation 0.00 in 0.03 in 2.02 in (1974)
Month to date precipitation 0.54  
Year to date precipitation 2.70  
Sea Level Pressure  
Sea Level Pressure 29.89 in    
Wind  
Wind Speed 12 mph (SSE)    
Max Wind Speed 24 mph    
Max Gust Speed 31 mph    
Visibility 7 miles    
Events      
T = Trace of Precipitation, MM = Missing Value Source: NWS Daily Summary

Daily Weather History Graph

Daily Weather History Graph

Search for Another Location

Airport or City:

Trip Planner

Search our weather history database for the weather conditions in past years. The results will help you decide how hot, cold, wet, or windy it might be!

Date:

Astronomy

Mar. 16, 2013 Rise Set
Actual Time 7:40 AM CDT 7:41 PM CDT
Civil Twilight 7:17 AM CDT 8:05 PM CDT
Nautical Twilight 6:50 AM CDT 8:31 PM CDT
Astronomical Twilight 6:23 AM CDT 8:58 PM CDT
Moon 10:39 AM CDT (3/16) No Moon Set
Length of Visible Light 12h 47m
Length of Day
12h 01m
Waxing Crescent, 23% of the Moon is Illuminated
Mar 16
Waxing Crescent
Mar 19
First Quarter
Mar 27
Full
Apr 2
Last Quarter
Apr 10
New

Hourly Weather History & Observations

Time (CDT) Temp. Heat Index Dew Point Humidity Pressure Visibility Wind Dir Wind Speed Gust Speed Precip Events Conditions
12:15 AM 67.1 °F - 57.0 °F 70% 30.05 in 10.0 mi SSE 11.5 mph - N/A   Clear
12:35 AM 66.7 °F - 57.2 °F 71% 30.05 in 10.0 mi SSE 10.4 mph - N/A   Clear
12:55 AM 67.1 °F - 57.2 °F 70% 30.04 in 10.0 mi SSE 10.4 mph - N/A   Clear
1:15 AM 67.3 °F - 57.6 °F 71% 30.03 in 10.0 mi SSE 11.5 mph - N/A   Clear
1:35 AM 67.1 °F - 57.9 °F 72% 30.03 in 10.0 mi South 10.4 mph - N/A   Clear
1:55 AM 67.1 °F - 58.1 °F 73% 30.02 in 10.0 mi SSE 10.4 mph - N/A   Clear
2:15 AM 67.1 °F - 58.6 °F 74% 30.01 in 10.0 mi SSE 12.7 mph 16.1 mph N/A   Clear
2:35 AM 66.7 °F - 58.6 °F 75% 30.01 in 10.0 mi SSE 12.7 mph - N/A   Clear
2:55 AM 66.2 °F - 58.5 °F 76% 30.00 in 10.0 mi SSE 9.2 mph - N/A   Clear
3:15 AM 65.5 °F - 58.3 °F 77% 29.99 in 10.0 mi SE 9.2 mph - N/A   Clear
3:55 AM 63.5 °F - 57.6 °F 81% 29.98 in 10.0 mi SE 4.6 mph - N/A   Clear
4:15 AM 62.6 °F - 57.2 °F 82% 29.97 in 10.0 mi SE 4.6 mph - N/A   Clear
4:35 AM 61.7 °F - 56.7 °F 84% 29.97 in 10.0 mi SE 4.6 mph - N/A   Clear
4:55 AM 60.8 °F - 56.3 °F 85% 29.96 in 10.0 mi ESE 3.5 mph - N/A   Clear
5:35 AM 59.2 °F - 55.4 °F 87% 29.94 in 7.0 mi SE 4.6 mph - N/A   Clear
5:55 AM 59.4 °F - 55.6 °F 87% 29.94 in 7.0 mi Calm Calm - N/A   Clear
6:15 AM 59.4 °F - 55.6 °F 87% 29.94 in 5.0 mi ESE 3.5 mph - N/A   Clear
6:35 AM 58.6 °F - 55.4 °F 89% 29.94 in 5.0 mi Calm Calm - N/A   Clear
6:55 AM 59.0 °F - 55.6 °F 88% 29.94 in 5.0 mi Calm Calm - N/A   Clear
7:15 AM 58.6 °F - 55.8 °F 90% 29.94 in 4.0 mi Calm Calm - N/A   Clear
7:35 AM 59.0 °F - 56.3 °F 91% 29.93 in 4.0 mi SE 3.5 mph - N/A   Clear
7:55 AM 58.1 °F - 55.4 °F 91% 29.93 in 2.0 mi SE 4.6 mph - N/A   Clear
8:15 AM 58.5 °F - 55.9 °F 91% 29.93 in 2.5 mi Calm Calm - N/A   Clear
8:35 AM 60.3 °F - 57.6 °F 91% 29.94 in 4.0 mi SE 4.6 mph - N/A   Clear
8:55 AM 66.0 °F - 63.1 °F 90% 29.94 in 5.0 mi SSE 9.2 mph - N/A   Clear
9:15 AM 69.1 °F - 62.8 °F 80% 29.94 in 5.0 mi SSE 12.7 mph - N/A   Haze
9:35 AM 71.4 °F - 62.6 °F 74% 29.94 in 5.0 mi SSE 13.8 mph - N/A   Haze
9:55 AM 72.7 °F - 62.1 °F 69% 29.95 in 5.0 mi SSE 12.7 mph - N/A   Haze
10:15 AM 74.8 °F - 61.9 °F 64% 29.95 in 5.0 mi SSE 16.1 mph 25.3 mph N/A   Haze
10:35 AM 72.9 °F - 62.1 °F 69% 29.95 in 5.0 mi SSE 11.5 mph 18.4 mph N/A   Haze
10:55 AM 76.3 °F - 60.3 °F 57% 29.94 in 5.0 mi South 20.7 mph 28.8 mph N/A   Haze
11:15 AM 77.9 °F - 59.9 °F 54% 29.93 in 5.0 mi South 18.4 mph 28.8 mph N/A   Haze
11:35 AM 79.7 °F - 59.7 °F 50% 29.93 in 7.0 mi SSE 24.2 mph 31.1 mph N/A   Scattered Clouds
11:55 AM 80.4 °F 81.1 °F 59.4 °F 49% 29.92 in 5.0 mi SSE 24.2 mph 29.9 mph N/A   Haze
12:15 PM 80.2 °F 80.8 °F 58.6 °F 48% 29.92 in 7.0 mi South 20.7 mph 25.3 mph N/A   Scattered Clouds
12:35 PM 81.7 °F 81.9 °F 59.0 °F 46% 29.91 in 7.0 mi SSE 19.6 mph 26.5 mph N/A   Mostly Cloudy
12:55 PM 82.8 °F 82.5 °F 58.1 °F 43% 29.90 in 5.0 mi SSE 21.9 mph 29.9 mph N/A   Haze
1:15 PM 82.9 °F 82.8 °F 58.8 °F 44% 29.89 in 7.0 mi SSE 18.4 mph 26.5 mph N/A   Mostly Cloudy
1:35 PM 84.2 °F 83.7 °F 58.1 °F 41% 29.88 in 5.0 mi South 20.7 mph 26.5 mph N/A   Haze
1:55 PM 83.1 °F 82.7 °F 58.1 °F 42% 29.87 in 7.0 mi SSE 20.7 mph 26.5 mph N/A   Mostly Cloudy
2:15 PM 81.7 °F 81.8 °F 58.6 °F 45% 29.85 in 7.0 mi SSE 18.4 mph 25.3 mph N/A   Scattered Clouds
2:35 PM 82.9 °F 82.6 °F 57.7 °F 42% 29.84 in 5.0 mi South 19.6 mph 29.9 mph N/A   Haze
2:55 PM 82.6 °F 82.3 °F 58.3 °F 43% 29.83 in 5.0 mi SSE 21.9 mph 31.1 mph N/A   Haze
3:15 PM 82.6 °F 82.3 °F 58.3 °F 43% 29.82 in 7.0 mi SSE 23.0 mph 29.9 mph N/A   Mostly Cloudy
3:35 PM 81.5 °F 81.7 °F 59.0 °F 46% 29.81 in 7.0 mi SSE 20.7 mph 26.5 mph N/A   Scattered Clouds
3:55 PM 80.6 °F 81.0 °F 58.5 °F 47% 29.81 in 7.0 mi SSE 20.7 mph 27.6 mph N/A   Scattered Clouds
4:15 PM 80.6 °F 81.0 °F 58.6 °F 47% 29.81 in 5.0 mi SSE 21.9 mph 27.6 mph N/A   Haze
4:35 PM 80.1 °F 80.6 °F 58.3 °F 47% 29.80 in 7.0 mi SSE 19.6 mph 26.5 mph N/A   Scattered Clouds
4:55 PM 79.9 °F - 59.5 °F 50% 29.80 in 7.0 mi SSE 20.7 mph 24.2 mph N/A   Clear
5:15 PM 81.0 °F 81.3 °F 59.0 °F 47% 29.79 in 7.0 mi SE 20.7 mph 26.5 mph N/A   Clear
5:35 PM 81.1 °F 81.4 °F 58.8 °F 46% 29.79 in 7.0 mi SSE 18.4 mph 27.6 mph N/A   Clear
5:55 PM 81.7 °F 81.9 °F 59.2 °F 46% 29.78 in 7.0 mi SSE 19.6 mph 25.3 mph N/A   Clear
6:15 PM 79.9 °F - 60.6 °F 52% 29.78 in 7.0 mi SE 20.7 mph 26.5 mph N/A   Clear
6:35 PM 79.7 °F - 60.8 °F 52% 29.78 in 5.0 mi SSE 20.7 mph 26.5 mph N/A   Haze
6:55 PM 79.0 °F - 60.4 °F 53% 29.79 in 7.0 mi SSE 15.0 mph 26.5 mph N/A   Clear
7:15 PM 77.4 °F - 60.4 °F 56% 29.79 in 5.0 mi SE 18.4 mph 28.8 mph N/A   Haze
7:35 PM 76.1 °F - 61.0 °F 59% 29.80 in 7.0 mi SE 18.4 mph 25.3 mph N/A   Clear
7:55 PM 75.2 °F - 61.2 °F 62% 29.80 in 7.0 mi SSE 18.4 mph 27.6 mph N/A   Clear
8:15 PM 74.3 °F - 61.5 °F 64% 29.81 in 7.0 mi SSE 18.4 mph 23.0 mph N/A   Clear
8:35 PM 73.6 °F - 61.9 °F 67% 29.81 in 7.0 mi SE 17.3 mph - N/A   Clear
8:55 PM 73.0 °F - 62.1 °F 68% 29.82 in 7.0 mi SE 13.8 mph 23.0 mph N/A   Clear
9:15 PM 72.7 °F - 62.6 °F 71% 29.83 in 7.0 mi SSE 15.0 mph 20.7 mph N/A   Scattered Clouds
9:35 PM 72.5 °F - 62.8 °F 71% 29.83 in 7.0 mi SSE 12.7 mph 25.3 mph N/A   Scattered Clouds
9:55 PM 73.0 °F - 63.1 °F 71% 29.83 in 7.0 mi SSE 13.8 mph 23.0 mph N/A   Mostly Cloudy
10:15 PM 73.4 °F - 63.1 °F 70% 29.84 in 7.0 mi SSE 17.3 mph 27.6 mph N/A   Overcast
10:35 PM 73.4 °F - 63.5 °F 71% 29.83 in 7.0 mi SSE 18.4 mph 27.6 mph N/A   Overcast
10:55 PM 73.0 °F - 63.7 °F 72% 29.83 in 7.0 mi SSE 17.3 mph 24.2 mph N/A   Mostly Cloudy
11:15 PM 72.9 °F - 63.9 °F 73% 29.83 in 7.0 mi SSE 15.0 mph 26.5 mph N/A   Mostly Cloudy
11:35 PM 72.9 °F - 63.9 °F 73% 29.82 in 7.0 mi SSE 17.3 mph 25.3 mph N/A   Overcast
11:55 PM 72.7 °F - 64.0 °F 74% 29.82 in 7.0 mi SSE 13.8 mph 21.9 mph N/A   Overcast